Regional Weather Roundup
Issued by NWS

Home | Current Version | Previous Version | Graphics & Text | Print | Product List | Glossary On
Versions: 1 2 3 4 5 6 7 8 9 10 11 12 13 14 15 16 17 18 19 20 21 22 23 24 25 26 27
000
ASUS45 KPSR 051410
RWRAZ

ARIZONA HOURLY REGIONAL WEATHER ROUNDUP
NATIONAL WEATHER SERVICE PHOENIX AZ
700 AM MST THU MAY 05 2016

NOTE: FAIR INDICATES FEW OR NO CLOUDS BELOW 12,000 FEET WITH NO
SIGNIFICANT WEATHER AND/OR OBSTRUCTIONS TO VISIBILITY.

AZZ001>003-036-051500-
NORTHWEST ARIZONA

CITY           SKY/WX    TMP DP  RH WIND       PRES   REMARKS
BULLHEAD CITY  MOSUNNY   73  34  23 SW5       29.80R
KINGMAN        MOSUNNY   65  21  18 SE15      29.91R
$$

AZZ004>008-015-016-018-051500-
NORTH CENTRAL ARIZONA

CITY           SKY/WX    TMP DP  RH WIND       PRES   REMARKS
GRAND CANYON   MOSUNNY   42  33  70 CALM      30.10R
WILLIAMS       MOSUNNY   52  27  37 SE8       30.17R
PRESCOTT       SUNNY     58  25  28 CALM      30.03R
FLAGSTAFF      MOSUNNY   39  31  72 CALM      30.14R
PAYSON         SUNNY     63  27  25 VRB3      30.07S
PAGE           PTSUNNY   67  30  25 W5        29.98S
$$

AZZ009>014-017-051500-
NORTHEAST ARIZONA

CITY           SKY/WX    TMP DP  RH WIND       PRES   REMARKS
WINSLOW        PTSUNNY   60  32  34 E3        30.05S
SAINT JOHNS    SUNNY     64  25  22 SE12      30.12S
WINDOW ROCK    SUNNY     45  35  68 CALM      30.23R
SHOW LOW       SUNNY     54  27  35 CALM      30.14F
$$

AZZ023-051500-
GREATER PHOENIX AREA

CITY           SKY/WX    TMP DP  RH WIND       PRES   REMARKS
PHOENIX        MOSUNNY   75  26  16 SE6       29.83R
BUCKEYE        SUNNY     72  23  16 CALM      29.86R
GLENDALE       MOSUNNY   70  36  28 VRB5      29.86R
LUKE AFB       SUNNY     71  32  23 NW3       29.84R
DEER VALLEY    SUNNY     77  24  14 SE12      29.84R
SCOTTSDALE     SUNNY     73  32  22 CALM      29.87R
MESA-FALCON    MOSUNNY  N/A N/A N/A E9        29.84R
MESA-GATEWAY   MOSUNNY   70  27  19 SE12      29.87R
CHANDLER       MOSUNNY   70  34  26 CALM      29.85R
$$

AZZ027-028-051500-
SOUTHWEST MARICOPA COUNTY AND PINAL COUNTY

CITY           SKY/WX    TMP DP  RH WIND       PRES   REMARKS
CASA GRANDE    SUNNY     70  25  18 E3        29.87R
GILA BEND      SUNNY     74  30  19 S8        29.83R
$$

AZZ503-504-507>509-051500-
SOUTHEAST ARIZONA

CITY           SKY/WX    TMP DP  RH WIND       PRES   REMARKS
TUCSON         SUNNY     70  30  22 SE10      29.96R
DAVIS-MONTHAN  SUNNY     69  32  25 E8        29.95R
RYAN FIELD     SUNNY     64  32  29 E9        29.95R
NOGALES        SUNNY     63  32  31 S5        30.03R
SIERRA VISTA   SUNNY     65  28  25 NW2       30.07R
DOUGLAS        SUNNY     68  29  23 SE8       30.05R
SAFFORD        SUNNY     73  24  16 SE12      29.99R
$$

AZZ020-021-025-026-031-051500-
SOUTHWEST ARIZONA

CITY           SKY/WX    TMP DP  RH WIND       PRES   REMARKS
YUMA           PTSUNNY   71  46  40 SE10      29.77S
$$

CAZ031-033-041-043-047-048-061-051500-
SOUTHERN CALIFORNIA

CITY           SKY/WX    TMP DP  RH WIND       PRES   REMARKS
DOWNTOWN L.A.  CLOUDY    60  52  74 W3        29.90R
L.A. AIRPORT   CLOUDY    60  53  77 W5        29.91R
SAN DIEGO      CLOUDY    62  52  69 S3        29.94R
BURBANK        PTSUNNY   57  49  74 CALM      29.90R
ONTARIO        CLOUDY    57  50  77 W3        29.91S
RIVERSIDE      CLOUDY    57  52  83 CALM      29.91S
PALM SPRINGS   MOSUNNY   64  46  52 W12G17    29.78R
EL CENTRO NAS  PTSUNNY   66  45  46 W26G35    29.78R
IMPERIAL       MOSUNNY   67  46  47 W21G32    29.76R HAZE
BLYTHE         MOSUNNY   71  43  36 S12       29.77S
NEEDLES        MOSUNNY   76  39  26 SE5       29.77S
$$

NVZ020-UTZ003-051500-
SOUTHERN NEVADA-UTAH

CITY           SKY/WX    TMP DP  RH WIND       PRES   REMARKS
LAS VEGAS      PTSUNNY   71  34  25 SE3       29.77R
SALT LAKE CITY CLOUDY    67  32  27 S9        29.93R
$$

NMZ009-TXZ055-051500-
NEW MEXICO-WEST TEXAS

CITY           SKY/WX    TMP DP  RH WIND       PRES   REMARKS
ALBUQUERQUE    SUNNY     57  25  29 N6        30.22R
EL PASO        PTSUNNY   69  23  17 N3        30.13R
$$


........................KEY........................
SKY/WX - SKY CONDITION/WEATHER
TMP    - TEMPERATURE IN FAHRENHEIT
DP     - DEW POINT IN FAHRENHEIT
RH     - RELATIVE HUMIDITY IN PERCENT
WIND   - DIRECTION AND SPEED IN MILES PER HOUR (MPH)
VRB    - VARIABLE WIND DIRECTION
PRES   - MEAN SEA LEVEL PRESSURE IN INCHES OF MERCURY
         F - FALLING PRESSURE   R - RISING PRESSURE
         S - STEADY PRESSURE
VSB    - VISIBILITY IN MILES
HX     - HEAT INDEX IN FAHRENHEIT
WCI    - WIND CHILL INDEX IN FAHRENHEIT
TC     - TEMPERATURE IN CELSIUS WHICH IS ALSO KNOWN AS
         TEMPERATURE IN CENTIGRADE
AFB    - AIR FORCE BASE
         LUKE AFB IS LUKE AIR FORCE BASE
         DAVIS-MONTHAN IS DAVIS-MONTHAN AIR FORCE BASE
NAS    - NAVAL AIR STATION
         EL CENTRO NAS IS EL CENTRO NAVAL AIR STATION
N/A    - NOT AVAILABLE





USA.gov is the U.S. government's official web portal to all federal, state and local government web resources and services.